Regional Weather Roundup
Issued by NWS Charleston, SC

Current Version | Previous Version | Graphics & Text | Print | Product List | Glossary On
Versions: 1 2 3 4 5 6 7 8 9 10 11 12 13 14 15 16 17 18 19 20 21 22 23 24 25 26 27 28 29 30 31 32 33 34 35 36 37 38 39 40 41 42 43 44 45 46 47 48 49 50
799
ASUS42 KCHS 231127
RWRCHS

Regional Weather Roundup
National Weather Service Charleston SC
600 AM EST FRI FEB 23 2018

NOTE: "fair" indicates few or no clouds below 12,000 feet with no
significant weather and/or obstructions to visibility.

Not all stations are quality controlled. Use data with caution,
especially dewpoint observations.

SCZ027-030-031-034>040-042>050-231200-
...Southeast South Carolina...

CITY           SKY/WX    TMP DP  RH WIND       PRES   REMARKS
N Charleston   FAIR      58  58 100 CALM      30.42R FOG
Waterfront Prk   N/A     62  62 100 CALM      30.26S
Mount Pleasant FAIR      57  57 100 CALM      30.43R
Johns Island   FAIR      59  59 100 CALM      30.42R FOG
Pinopolis        N/A     61  61 100 VRB3      30.32S
Moncks Corner  FOG       52  52 100 CALM      30.43R VSB 1
Summerville    FAIR      54  54 100 CALM      30.44R FOG
Beaufort MCAS  FOG       58  58 100 N3        30.41R VSB 1/2
Beaufort Arpt  FOG       61  61 100 CALM      30.41R VSB 1/2
Hilton Head Is FAIR      59  59 100 CALM      30.42R
Walterboro     FOG       52  52 100 CALM      30.43R VSB 1/4
Allendale      FAIR      55  55 100 CALM      30.42R

...Southern Midlands and Pee Dee...

CITY           SKY/WX    TMP DP  RH WIND       PRES   REMARKS
Georgetown     FOG       54  52  94 CALM      30.44R VSB 1/4
Kingstree      CLOUDY    52  50  93 CALM      30.44R FOG
Orangeburg     MOCLDY    55  53  93 CALM      30.43R FOG
Barnwell       FOG       54  54 100 CALM      30.43R VSB 1/4
Aiken          FOG       52  52 100 CALM      30.46R VSB 1/2
Manning        FOG       52  50  93 MISG      30.44R VSB 1/4
Columbia       FAIR      58  57  97 CALM      30.42R
Sumter         MOCLDY    54  52  94 CALM      30.42R FOG
Florence       FOG       54  54 100 CALM      30.44R VSB 1/2
Myrtle Beach   CLOUDY    57  57 100 CALM      30.45R VSB 1
N Myrtle Beach FOG       58  58 100 CALM      30.43R VSB 1/2

$$

GAZ063-065-086>088-099>101-113>116-118-119-134>141-150-231200-
...Southeast Georgia...

CITY           SKY/WX    TMP DP  RH WIND       PRES   REMARKS
Savannah Arpt  FOG       57  57 100 N3        30.41R VSB 1/4
Hunter AAF     FAIR      57  55  94 CALM      30.38R FOG
Fort Stewart   FOG       57  57 100 CALM      30.38R VSB 3/8
Statesboro     FOG       56  32  40 CALM      30.42R VSB<1/4
Sylvania       FOG       55  55 100 CALM      30.43R VSB 1/2
Claxton        FOG       57  57  99 CALM      30.41R VSB 3/4

...CSRA, Central and far Southeast Georgia...

CITY           SKY/WX    TMP DP  RH WIND       PRES   REMARKS
Thomson        FAIR      55  54  97 CALM      30.47R FOG
Augusta-Bush   CLOUDY    59  59 100 CALM      30.42R FOG
Augusta-Daniel CLOUDY    63  61  93 SE5       30.43R FOG
Swainsboro     FOG       61  61 100 CALM      30.43R VSB<1/4
Vidalia        FOG       59  59 100 CALM      30.41R VSB 1/4
Eastman        HAZE      56  51  81 CALM      30.43S VSB 1/4
Hazlehurst     FAIR      63  63 100 CALM      30.39R FOG
Alma           FOG       57  55  93 CALM      30.39R VSB 1/4
Waycross       FOG       57  55  90 CALM      30.39S VSB 1/2
Jesup          FOG       57  54  88 CALM      30.40R VSB 1/2
Baxley         FOG       55  55 100 CALM      30.40R VSB 1/4
Brunswick      FOG       57  55  94 CALM      30.41R VSB 1/2
Saint Simons   FAIR      63  63 100 CALM      30.39R FOG

$$

SCZ027-028-034-036>038-045-046-048>050-GAZ119-141-231200-
...Lake and Supplemental Coastal Observations...

STATION/POSITION TIME  TEMP    WIND        PRES    WAVE   SWELL
                       AIR SEA DIR/SP/G            HT/PER HT/PER/DIR
                 (UTC) (F)     (DEG/KT/KT) (MB)    (FT/S) (FT/S/D)
Winyah Bay       1045   60        CALM     1030.0S
Lake Murray      1050   61      CALM  /  2 1029.5R
ACE Basin NERRS  1045   62        CALM     1030.0R
Fort Pulaski     1100   62 62  360/  1/  2 1029.9
Sapelo Island    1100   58      90/  2     1029.0

$$

ANZ835-935-AMZ111-154-330-350-352-354-370-450-454-472-231200-
...C-MAN and Buoy Observations...

STATION/POSITION TIME  TEMP    WIND        PRES    WAVE   SWELL
                       AIR SEA DIR/SP/G            HT/PER HT/PER/DIR
                 (UTC) (F)     (DEG/KT/KT) (MB)    (FT/S) (FT/S/D)
Buoy 41004       1110   69     100/  4/  6 1029.8
Buoy 41008       1050   62 59   30/  2/  4 1028.9R   3/ 9   3/100/ 9
Folly Beach CMAN 1100   63      40/  2/  3 1030.5R
Capers Nearshore 1008   58 59  100/  4/  8 1029.4
Fripp Nearshore  1108   59 61   90/  4/  6 1029.2R


STATION/POSITION TIME  TEMP    WIND        PRES    WAVE   SWELL
                       AIR SEA DIR/SP/G            HT/PER HT/PER/DIR
                 (UTC) (F)     (DEG/KT/KT) (MB)    (FT/S) (FT/S/D)
5E St. Marys GA  1100      64                N/A     3/14   2/100/14
Frying Pan Buoy  1110   71     170/  4/  6 1030.5
Buoy 41025       1110   60     360/ 12/ 16 1031.9
Cape Lookout NC  1100           90/  2/  3 1031.6R
Buoy 41002       1050   71 73  110/  6/  8 1031.6R   5/ 9   5/120/ 9
Buoy 41010       NOT AVBL
St Augustine FL  1100   68 67   90/  6/  6 1028.5R


$$




USA.gov is the U.S. government's official web portal to all federal, state and local government web resources and services.